CAPE
56 48 15 9 3 17 26 15 32 31 28 2 0 0 0 0 0 0 0 0 0 0 0 0 0 0 0 0 0 0 0 0 0 0 0 0 0 0 0 0 0 0 0 0 0
16 48 20 6 12 13 15 25 63 23 22 0 0 0 0 0 0 0 0 0 0 0 0 0 0 0 0 0 0 0 0 0 0 0 0 0 0 0 0 0 0 0 0 0 0
73 50 19 12 7 26 16 26 62 70 14 2 0 0 0 0 0 0 0 0 0 0 0 0 0 0 0 0 0 0 0 0 0 0 0 0 0 0 0 0 0 0 0 0 0
57 61 18 12 14 23 30 17 110 70 10 4 0 0 0 0 0 0 0 0 0 0 0 0 0 0 0 0 0 0 0 0 0 0 0 0 0 0 0 0 0 0 0 0 0
77 44 23 9 12 18 41 63 80 4 4 1 0 0 0 0 0 0 0 0 0 0 0 0 0 0 0 0 0 0 0 0 0 0 0 0 0 0 0 0 0 0 0 0 0
36 21 22 22 10 18 31 76 20 1 0 1 0 0 0 0 0 0 0 0 0 0 0 0 0 0 0 0 0 0 0 0 0 0 0 0 0 0 0 0 0 0 0 0 0
57 26 13 20 3 23 31 77 7 0 2 0 0 0 0 0 0 0 0 0 0 0 0 0 0 0 0 0 0 0 0 0 0 0 0 0 0 0 0 0 0 0 0 0 0
60 28 14 32 16 26 10 113 11 3 0 0 0 0 0 0 0 0 0 0 0 0 0 0 0 0 0 0 0 0 0 0 0 0 0 0 0 0 0 0 0 0 0 0 0
46 31 11 18 31 22 119 189 85 39 2 22 0 0 0 0 0 0 0 0 0 0 0 0 0 0 0 0 0 0 0 0 0 0 0 0 0 0 0 0 0 0 0 0 0
22 27 19 16 54 68 172 130 151 82 43 0 0 0 0 0 0 0 0 0 0 0 0 0 0 0 0 0 0 0 0 0 0 0 0 0 0 0 0 0 0 0 0 0 0
30 15 18 46 95 137 103 8 3 10 0 0 0 0 0 0 0 0 0 0 0 0 0 0 0 0 0 0 0 0 0 0 0 0 0 0 0 0 0 0 0 0 0 0 0
38 21 18 62 75 56 0 0 0 0 4 0 0 0 0 0 0 0 0 0 0 0 0 0 0 0 0 0 0 0 0 0 0 0 0 0 0 0 0 0 0 0 0 0 0
27 5 46 65 98 8 0 0 0 0 0 0 0 0 0 0 0 0 0 0 0 0 0 0 0 0 0 0 0 0 0 0 0 0 0 0 0 0 0 0 0 0 0 0 0
13 14 45 73 58 0 0 0 0 0 0 0 0 0 0 0 0 0 0 0 0 0 0 0 0 0 0 0 0 0 0 0 0 0 0 0 0 0 0 0 0 0 0 0 0
12 18 36 5 19 0 0 0 0 0 0 0 0 0 0 0 0 0 0 0 0 0 0 0 0 0 0 0 0 0 0 0 0 0 0 0 0 0 0 0 0 0 0 0 0
22 54 32 23 5 0 0 0 0 0 0 0 0 0 0 0 0 0 0 0 0 0 0 0 0 0 0 0 0 0 0 0 0 0 0 0 0 0 0 0 0 0 0 0 0
21 51 34 0 0 0 0 0 0 0 0 0 0 0 0 0 0 0 0 0 0 0 0 0 0 0 0 0 0 0 0 0 0 0 0 0 0 0 0 0 0 0 0 0 0
31 27 10 0 0 0 0 0 0 0 0 0 0 0 0 0 0 0 0 0 0 0 0 0 0 0 0 0 0 0 0 0 0 0 0 0 0 0 0 0 0 0 0 0 0
40 33 20 1 3 0 0 0 0 0 0 0 0 0 0 0 0 0 0 0 0 0 0 0 0 0 0 0 0 0 0 0 0 0 0 0 0 0 0 0 0 0 0 0 0
31 11 22 2 5 0 0 0 0 0 0 0 0 0 0 0 0 0 0 0 0 0 0 0 0 0 0 0 0 0 0 0 0 0 0 0 0 0 0 0 0 0 0 0 0
2 4 4 0 4 0 0 0 0 0 0 0 0 0 0 0 0 0 0 0 0 0 0 0 0 0 0 0 0 0 0 0 0 0 0 0 0 0 0 0 0 0 0 0 0
9 0 5 0 4 0 0 0 0 0 0 0 0 0 0 0 0 0 0 0 0 0 0 0 0 0 0 0 0 0 0 0 0 0 0 0 0 0 0 0 0 0 0 0 0
0 0 1 16 2 3 0 0 0 0 0 0 0 0 0 0 0 0 0 0 0 0 0 0 0 0 0 0 0 0 0 0 0 0 0 0 0 0 0 0 0 0 0 0 0
0 0 0 29 0 2 0 0 0 0 0 0 0 0 0 0 0 0 0 0 0 0 0 0 0 0 0 0 0 0 0 0 0 0 0 0 0 0 0 0 0 0 0 0 0
0 0 2 12 3 0 0 0 0 0 1 0 0 0 0 0 0 0 0 0 0 0 0 0 0 0 0 0 0 0 0 0 0 0 0 0 0 0 0 0 0 0 0 0 0
0 0 0 5 0 0 0 0 0 0 0 0 0 0 0 0 0 0 0 0 0 0 0 0 0 0 0 0 0 0 0 0 0 0 0 0 0 0 0 0 0 0 0 0 0
1 0 0 0 0 0 0 0 0 0 0 0 0 0 0 0 0 0 0 0 0 0 0 0 0 0 0 0 0 0 0 0 0 0 0 0 0 0 0 0 0 0 0 0 0
CIN
-1 -1 -9 -20 -12 -10 -6 -25 -36 -23 -29 -64 0 0 0 0 0 0 0 0 0 0 0 0 0 0 0 0 0 0 0 0 0 0 0 0 0 0 0 0 0 0 0 0 0
0 -2 -8 -17 -11 -6 -4 -51 -26 -28 -35 -63 0 0 0 0 0 0 0 0 0 0 0 0 0 0 0 0 0 0 0 0 0 0 0 0 0 0 0 0 0 0 0 0 0
0 -2 -8 -9 -13 -7 -4 -62 -35 -27 -64 -86 0 0 0 0 0 0 0 0 0 0 0 0 0 0 0 0 0 0 0 0 0 0 0 0 0 0 0 0 0 0 0 0 0
0 -2 -11 -9 -19 -6 -2 -3 -34 -44 -115 -92 0 0 0 0 0 0 0 0 0 0 0 0 0 0 0 0 0 0 0 0 0 0 0 0 0 0 0 0 0 0 0 0 0
-1 -3 -11 -14 -17 -13 -6 0 -57 -5 0 -91 0 0 0 0 0 0 0 0 0 0 0 0 0 0 0 0 0 0 0 0 0 0 0 0 0 0 0 0 0 0 0 0 0
-1 -3 -9 -13 -20 -21 -16 0 -14 -14 0 -82 0 0 0 0 0 0 0 0 0 0 0 0 0 0 0 0 0 0 0 0 0 0 0 0 0 0 0 0 0 0 0 0 0
0 -2 -11 -19 -21 -27 -23 0 -15 -3 -79 0 0 0 0 0 0 0 0 0 0 0 0 0 0 0 0 0 0 0 0 0 0 0 0 0 0 0 0 0 0 0 0 0 0
0 -2 -15 -15 -26 -26 -25 -3 -21 -46 0 -15 0 0 0 0 0 0 0 0 0 0 0 0 0 0 0 0 0 0 0 0 0 0 0 0 0 0 0 0 0 0 0 0 0
0 -3 -21 -21 -63 -34 -8 0 -1 -8 -18 -7 0 0 0 0 0 0 0 0 0 0 0 0 0 0 0 0 0 0 0 0 0 0 0 0 0 0 0 0 0 0 0 0 0
-1 -8 -13 -45 -68 -17 -1 0 0 -5 -23 0 0 0 0 0 0 0 0 0 0 0 0 0 0 0 0 0 0 0 0 0 0 0 0 0 0 0 0 0 0 0 0 0 0
-2 -17 -12 -64 -23 0 0 -27 -55 -11 0 0 0 0 0 0 0 0 0 0 0 0 0 0 0 0 0 0 0 0 0 0 0 0 0 0 0 0 0 0 0 0 0 0 0
-4 -18 -40 -48 -22 -15 0 0 0 0 -6 0 0 0 0 0 0 0 0 0 0 0 0 0 0 0 0 0 0 0 0 0 0 0 0 0 0 0 0 0 0 0 0 0 0
-15 -35 -28 -33 -4 -16 0 0 0 0 0 0 0 0 0 0 0 0 0 0 0 0 0 0 0 0 0 0 0 0 0 0 0 0 0 0 0 0 0 0 0 0 0 0 0
-23 -10 -15 -7 -8 -1 0 0 0 0 0 0 0 0 0 0 0 0 0 0 0 0 0 0 0 0 0 0 0 0 0 0 0 0 0 0 0 0 0 0 0 0 0 0 0
-23 -16 -12 -41 -12 0 0 0 0 0 0 0 0 0 0 0 0 0 0 0 0 0 0 0 0 0 0 0 0 0 0 0 0 0 0 0 0 0 0 0 0 0 0 0 0
-21 -12 -15 -14 -36 0 0 0 0 0 0 0 0 0 0 0 0 0 0 0 0 0 0 0 0 0 0 0 0 0 0 0 0 0 0 0 0 0 0 0 0 0 0 0 0
-19 -16 -18 -2 0 0 0 0 0 0 0 0 0 0 0 0 0 0 0 0 0 0 0 0 0 0 0 0 0 0 0 0 0 0 0 0 0 0 0 0 0 0 0 0 0
-18 -17 -21 -2 0 0 0 0 0 0 0 0 0 0 0 0 0 0 0 0 0 0 0 0 0 0 0 0 0 0 0 0 0 0 0 0 0 0 0 0 0 0 0 0 0
-23 -4 -7 -15 -56 0 0 0 0 0 0 0 0 0 0 0 0 0 0 0 0 0 0 0 0 0 0 0 0 0 0 0 0 0 0 0 0 0 0 0 0 0 0 0 0
-1 -3 -4 -102 -56 0 0 0 0 0 0 0 0 0 0 0 0 0 0 0 0 0 0 0 0 0 0 0 0 0 0 0 0 0 0 0 0 0 0 0 0 0 0 0 0
0 -1 -1 0 -73 0 0 0 0 0 0 0 0 0 0 0 0 0 0 0 0 0 0 0 0 0 0 0 0 0 0 0 0 0 0 0 0 0 0 0 0 0 0 0 0
-5 -1 -2 -6 -2 0 0 0 0 0 0 0 0 0 0 0 0 0 0 0 0 0 0 0 0 0 0 0 0 0 0 0 0 0 0 0 0 0 0 0 0 0 0 0 0
0 0 -4 -24 -2 0 0 0 0 0 0 0 0 0 0 0 0 0 0 0 0 0 0 0 0 0 0 0 0 0 0 0 0 0 0 0 0 0 0 0 0 0 0 0 0
0 0 0 -2 0 -5 0 0 0 0 0 0 0 0 0 0 0 0 0 0 0 0 0 0 0 0 0 0 0 0 0 0 0 0 0 0 0 0 0 0 0 0 0 0 0
0 0 -2 -1 -1 -3 0 0 0 -9 -67 0 0 0 0 0 0 0 0 0 0 0 0 0 0 0 0 0 0 0 0 0 0 0 0 0 0 0 0 0 0 0 0 0 0
0 0 -1 -3 -7 0 0 0 0 0 0 0 0 0 0 0 0 0 0 0 0 0 0 0 0 0 0 0 0 0 0 0 0 0 0 0 0 0 0 0 0 0 0 0 0
0 0 -7 -1 0 0 0 0 0 0 0 0 0 0 0 0 0 0 0 0 0 0 0 0 0 0 0 0 0 0 0 0 0 0 0 0 0 0 0 0 0 0 0 0 0
Wind_Speed
42 39 39 38 36 38 39 35 29 26 23 20 20 18 19 18 16 21 27 25 25 21 18 14 18 17 11 17 17 19 23 26 28 21 21 19 18 20 20 18 20 21 22 23 30
43 37 36 35 33 35 36 33 28 26 22 20 18 17 17 17 20 27 25 25 23 19 23 15 15 16 19 21 19 22 24 22 23 27 25 24 20 17 19 17 20 20 17 6 24
39 36 34 34 29 34 34 31 27 24 21 19 17 15 15 15 22 26 27 24 22 21 21 19 15 17 20 22 24 24 27 22 23 26 30 25 21 21 14 22 26 16 5 8 25
49 39 33 32 30 32 32 29 26 24 21 18 17 15 15 19 31 22 18 21 22 22 20 18 18 19 19 25 23 27 29 27 25 24 23 24 21 22 24 25 24 8 9 10 20
42 35 33 31 29 31 31 28 25 22 21 19 16 14 17 25 28 19 15 16 18 21 25 22 21 21 23 19 20 27 22 29 28 25 23 23 24 23 28 23 18 10 8 7 13
47 38 35 31 29 32 31 28 25 23 18 17 16 13 18 30 20 18 12 14 16 21 24 26 24 19 22 21 22 22 24 24 28 28 24 25 23 22 25 20 14 8 8 5 9
47 41 34 32 32 32 33 29 25 24 19 17 16 15 20 22 19 14 11 14 14 16 20 22 25 23 24 24 20 21 26 25 29 29 29 25 28 29 22 18 14 13 13 10 5
33 38 33 34 35 35 35 30 27 23 21 18 17 17 22 19 13 12 12 14 13 14 16 15 15 21 22 25 22 24 24 35 28 30 31 28 35 29 22 19 20 17 18 12 9
36 38 34 36 35 37 34 31 26 24 22 19 16 17 23 16 20 16 14 17 15 17 18 14 17 22 22 25 26 29 35 34 31 32 29 31 33 29 23 21 20 20 19 16 15
37 31 35 37 36 35 32 29 25 23 20 18 18 20 22 21 17 15 16 15 18 17 18 21 22 27 28 26 39 39 37 33 37 31 32 36 34 26 25 24 23 21 24 22 20
33 33 34 37 37 35 34 31 28 23 25 25 23 19 17 16 14 16 16 17 18 21 28 24 30 35 28 27 26 27 36 34 34 31 32 39 41 31 27 28 28 25 25 26 31
38 33 36 37 38 36 35 34 31 24 27 20 20 18 18 18 16 15 16 20 23 28 22 28 42 31 32 32 30 28 31 33 29 31 33 37 47 38 32 34 32 29 29 26 28
35 34 37 38 36 37 38 35 26 23 24 23 20 18 16 19 19 18 18 18 24 27 26 31 30 31 33 34 33 33 34 35 32 23 31 36 45 43 40 43 38 37 34 31 27
37 37 37 37 36 37 36 30 27 24 24 26 25 25 19 17 21 22 23 16 22 29 26 31 26 26 30 34 31 39 29 32 31 30 41 32 48 40 41 46 44 44 39 36 29
37 38 40 40 31 41 33 29 28 25 40 26 24 21 20 20 17 22 25 19 23 24 26 29 28 27 33 34 28 34 29 28 28 29 34 36 40 42 38 38 46 43 40 35 31
39 39 40 35 31 32 28 29 24 31 38 25 24 23 24 23 21 22 26 22 19 21 27 26 23 25 30 27 28 22 24 23 24 27 44 39 41 43 39 38 35 33 36 32 27
41 41 37 32 33 35 28 30 30 39 23 29 30 27 29 26 23 26 27 25 22 26 30 26 26 26 24 25 24 26 25 32 36 39 43 33 40 46 32 32 31 29 27 23 21
42 40 34 34 35 32 32 34 39 34 28 23 28 28 31 26 28 29 28 30 31 26 27 30 34 29 25 29 26 26 28 34 41 41 39 29 42 40 36 33 31 29 24 20 19
43 35 33 36 39 32 36 39 36 34 29 26 26 32 33 34 31 29 33 33 32 26 27 31 31 26 25 26 25 29 37 28 28 30 35 36 40 39 35 32 28 27 21 19 17
41 37 37 36 38 34 41 40 31 32 24 23 32 32 38 37 34 33 33 38 36 30 28 26 32 28 26 25 26 28 25 35 32 41 43 37 40 41 34 36 29 25 22 21 19
33 37 37 35 34 36 44 39 32 27 26 30 32 32 36 38 38 37 35 31 36 32 25 25 28 30 27 32 31 28 33 29 27 31 44 43 40 30 32 27 29 24 22 19 18
41 35 40 39 39 42 45 37 31 30 28 29 29 29 33 35 37 40 39 34 36 30 30 23 24 31 34 28 28 30 33 33 33 36 35 34 39 25 27 24 25 24 20 18 15
41 31 38 41 45 46 40 37 34 32 32 31 28 27 27 34 38 39 41 34 24 34 33 24 25 28 31 30 27 34 33 34 30 28 38 40 38 25 24 22 18 17 16 15 14
39 38 37 45 39 40 38 39 37 31 30 27 29 24 23 32 32 37 36 31 28 32 28 23 27 32 37 37 25 31 31 28 31 39 37 45 37 32 30 28 24 19 15 13 12
37 42 43 47 47 40 38 40 37 34 30 29 29 31 28 27 32 33 34 30 29 29 30 32 40 31 29 28 26 31 31 30 33 36 38 46 39 36 31 29 24 19 16 15 15
41 42 43 40 36 36 42 49 43 36 31 33 28 27 29 31 29 33 29 32 32 28 30 30 42 36 37 29 28 32 29 28 31 34 44 39 41 28 27 24 22 18 15 16 17
31 36 39 37 40 37 41 36 40 35 31 29 25 25 27 26 25 20 19 21 24 29 30 30 31 34 44 32 31 42 35 34 38 37 40 44 51 30 29 26 24 22 24 26 25
Wind_Direction
238 229 227 227 228 225 225 223 224 225 227 227 233 239 240 242 249 249 246 248 247 249 260 259 257 260 282 259 259 258 252 246 243 251 253 249 247 238 233 233 229 226 210 205 139
237 223 223 222 225 223 222 219 218 220 221 222 228 233 236 241 251 251 252 248 243 253 250 253 249 244 254 255 255 252 250 250 251 248 250 245 246 247 242 244 239 233 236 102 130
229 219 218 219 219 220 218 215 212 213 213 216 218 224 229 240 253 256 246 247 243 246 249 252 247 247 250 251 256 252 249 252 253 254 245 243 243 245 244 242 233 247 234 121 140
224 217 215 216 216 215 212 208 207 210 208 207 209 217 228 246 245 262 251 242 239 242 242 244 243 238 246 250 250 250 248 248 253 258 244 238 241 247 242 243 241 248 139 133 139
225 211 211 212 209 208 208 200 200 202 201 201 204 211 236 245 251 273 246 236 236 239 237 239 240 241 246 255 252 251 250 245 251 252 246 242 243 247 240 247 246 239 226 153 140
223 211 209 207 204 205 204 196 195 195 194 195 199 210 244 242 262 269 237 230 238 239 239 238 245 252 247 256 250 257 251 245 249 247 245 243 248 247 243 251 244 218 223 201 152
219 210 205 204 203 201 204 196 196 195 194 191 192 231 245 249 268 265 214 230 236 241 235 246 248 246 251 255 260 259 249 248 247 243 242 242 244 244 247 248 242 239 244 243 220
195 206 200 202 202 202 201 194 192 189 190 194 208 241 248 259 263 247 225 231 239 245 248 242 249 240 249 250 252 252 253 238 245 240 241 244 243 245 248 244 246 246 249 251 248
206 202 198 200 198 200 195 192 186 190 192 201 222 242 248 251 246 247 234 226 235 246 254 244 245 242 247 240 243 245 244 239 240 236 243 242 246 246 247 244 248 249 253 256 261
199 183 195 196 195 191 184 181 180 178 192 215 233 241 249 237 238 234 235 224 242 238 246 243 245 240 241 236 235 240 241 245 236 238 240 242 245 250 246 245 248 252 255 258 261
188 183 189 189 187 180 174 177 188 203 204 222 225 244 245 232 229 228 225 230 239 235 239 240 237 231 229 242 249 251 242 249 243 241 241 241 242 251 249 248 249 254 257 260 257
190 171 186 186 185 179 186 198 195 208 202 236 222 245 242 220 225 218 220 232 234 231 237 240 238 239 239 245 247 253 246 246 249 244 245 245 243 250 251 248 251 254 256 261 262
178 173 182 183 179 190 198 206 199 178 210 232 224 238 223 225 227 216 211 242 234 228 231 238 251 236 239 240 242 247 247 245 246 249 248 249 248 248 251 248 254 254 257 261 264
174 181 169 171 187 194 199 198 191 200 224 226 226 232 232 228 239 231 223 232 242 230 234 248 249 226 234 239 239 243 249 252 250 246 244 248 247 250 252 249 250 251 253 256 261
175 164 160 164 188 197 189 190 193 217 228 223 223 235 226 221 230 229 227 242 234 237 234 242 237 234 232 237 240 247 249 252 253 248 249 249 250 251 254 254 248 251 253 256 260
167 164 162 195 198 191 188 184 208 217 233 225 216 218 215 231 234 221 224 241 244 239 237 245 250 240 237 240 237 243 244 249 253 251 246 247 247 251 251 253 256 257 254 256 259
168 166 172 192 181 189 181 185 208 223 224 227 216 212 211 225 228 224 215 223 228 227 225 240 241 243 238 236 236 230 232 241 245 245 246 250 248 247 255 257 259 259 258 257 258
174 170 190 200 183 187 189 197 219 225 220 227 217 208 221 218 231 225 216 222 234 237 228 230 235 235 238 236 233 230 231 244 244 244 249 254 249 251 254 261 263 266 265 260 260
171 187 190 198 186 193 194 206 227 221 223 216 212 211 224 221 227 224 222 220 229 231 229 229 238 240 243 240 235 240 238 251 255 256 253 254 257 262 257 261 266 262 260 260 262
178 188 195 193 185 198 208 220 231 222 215 203 221 221 220 213 222 222 221 228 227 231 236 239 237 241 241 242 243 243 238 241 251 246 250 257 256 254 256 256 261 260 259 261 266
191 193 196 185 190 204 212 219 226 224 213 221 226 226 225 219 225 221 223 235 223 226 236 240 242 240 238 239 235 241 239 248 250 252 249 254 257 262 259 261 257 262 260 262 265
195 202 188 180 197 213 215 220 224 222 228 231 230 233 225 218 224 225 227 232 223 224 228 241 244 238 237 250 250 246 246 241 247 250 254 258 257 268 264 268 266 264 263 267 268
192 196 196 188 206 209 216 223 227 225 224 226 230 234 228 223 228 231 230 234 235 223 226 234 244 239 241 249 250 244 247 246 251 259 252 251 256 267 265 268 274 273 269 268 264
193 193 195 206 220 208 211 216 219 227 227 230 227 229 222 226 233 230 230 235 236 229 232 238 249 245 243 246 247 248 247 251 249 252 254 252 257 258 261 266 276 281 275 267 263
205 201 198 193 211 207 212 213 215 219 229 225 229 225 225 231 231 233 230 233 236 235 232 240 244 251 257 262 253 253 248 246 249 251 254 254 261 264 269 271 276 277 274 271 270
202 203 208 205 201 200 212 217 215 220 222 223 224 221 226 230 233 231 231 233 233 235 231 238 244 248 252 262 259 255 254 249 247 254 256 263 265 274 271 275 275 274 275 275 276
213 208 203 197 203 203 192 205 212 216 231 227 221 222 229 235 239 243 245 238 240 234 233 235 242 247 250 256 261 259 252 253 256 255 259 261 254 274 274 272 270 272 276 278 277